Location: Bakhuizen
(52.8696°N, 5.4575°E)
Time: 18:47:32
(UTC+00:00)

Cosmos 2084 - Pass Details

Date: 11 May 2021
Orbit: 541 x 640 km, 62.8° (Epoch: 22 June)

Event Time Altitude Azimuth Distance (km) Brightness Sun altitude
Rises 20:01:51 0° 195° (SSW) 2,709 6.6 -5.5°
Reaches altitude 10° 20:04:13 10° 184° (S) 1,831 5.6 -5.8°
Maximum altitude 20:07:48 29° 124° (ESE) 1,040 4.2 -6.2°
Drops below altitude 10° 20:11:29 10° 63° (ENE) 1,888 5.8 -6.6°
Sets 20:13:57 0° 53° (NE) 2,810 6.8 -6.9°
